Date,TemperatureHighF,TemperatureAvgF,TemperatureLowF,DewpointHighF,DewpointAvgF,DewpointLowF,HumidityHigh,HumidityAvg,HumidityLow,PressureMaxIn,PressureMinIn,WindSpeedMaxMPH,WindSpeedAvgMPH,GustSpeedMaxMPH,PrecipitationSumIn
2014-1-1,31,27,21,31,27,20,100,100,95,0.00,40.00,4,2,6,0.01
2014-1-2,32,31,28,32,31,28,100,100,100,0.00,40.00,4,2,6,0.01
2014-1-3,52,40,28,33,26,20,100,60,28,0.00,40.00,19,12,28,0.01
2014-1-4,45,29,15,25,18,-100,91,69,40,0.00,40.00,7,4,10,0.00
2014-1-5,42,25,12,26,17,9,93,74,39,0.00,40.00,8,3,12,0.00
2014-1-6,39,27,17,21,17,12,85,67,40,0.00,40.00,10,3,12,0.00
2014-1-7,35,31,24,31,27,18,100,88,77,0.00,40.00,6,2,9,0.06
2014-1-8,33,30,28,32,30,28,100,99,94,0.00,40.00,5,1,7,0.03
2014-1-9,44,32,23,35,30,23,100,93,71,0.00,40.00,8,4,17,0.02
2014-1-10,53,45,30,37,34,30,100,67,48,0.00,40.00,17,6,26,0.01
2014-1-11,56,50,44,40,34,-100,68,54,38,0.00,40.00,38,19,57,0.00
2014-1-12,56,48,43,37,30,22,70,51,36,0.00,40.00,22,10,36,0.00
2014-1-13,59,52,42,36,34,33,75,52,39,0.00,40.00,16,10,26,0.00
2014-1-14,55,44,30,37,34,28,97,72,51,0.00,40.00,16,6,22,0.00
2014-1-15,55,37,27,36,31,26,100,83,43,0.00,40.00,8,3,17,0.00
2014-1-16,48,31,23,39,28,23,100,92,58,0.00,40.00,5,2,7,0.00
2014-1-17,42,28,19,35,26,18,100,95,70,0.00,40.00,7,2,9,0.00
2014-1-18,32,30,27,32,30,-100,100,99,100,0.00,40.00,5,2,7,0.01
2014-1-19,33,32,31,32,30,29,100,95,87,0.00,40.00,4,1,7,0.01
2014-1-20,34,32,31,31,30,28,95,89,84,0.00,40.00,6,3,8,0.00
2014-1-21,33,32,30,29,28,26,93,86,79,0.00,40.00,6,3,8,0.00
2014-1-22,34,32,30,29,28,26,95,86,75,0.00,40.00,5,2,8,0.00
2014-1-23,35,33,31,30,29,27,90,85,79,0.00,40.00,6,3,8,0.00
2014-1-24,33,32,31,31,29,28,99,90,84,0.00,40.00,4,2,7,0.00
2014-1-25,32,30,30,30,26,-100,97,88,79,0.00,40.00,4,2,7,0.00
2014-1-26,32,30,28,27,26,25,94,83,75,0.00,40.00,6,2,8,0.00
2014-1-27,35,32,31,29,28,26,93,83,73,0.00,40.00,5,3,8,0.00
2014-1-28,37,33,30,32,29,28,100,86,73,0.00,40.00,5,2,10,0.06
2014-1-29,38,34,29,35,32,28,100,96,88,0.00,40.00,9,5,14,0.30
2014-1-30,49,36,27,35,31,27,100,87,57,0.00,40.00,9,4,14,0.03
2014-1-31,44,33,24,33,29,23,100,87,54,0.00,40.00,6,2,11,0.00
2014-2-1,35,29,22,25,20,-100,95,72,42,0.00,40.00,7,4,9,0.00
2014-2-2,35,31,27,24,20,19,79,66,53,0.00,40.00,8,5,15,0.00
2014-2-3,36,30,26,24,19,12,80,64,39,0.00,40.00,11,6,16,0.00
2014-2-4,27,23,17,19,5,-2,75,46,36,0.00,40.00,13,10,20,0.00
2014-2-5,19,15,11,-2,-8,-12,44,35,29,0.00,40.00,15,10,23,0.00
2014-2-6,20,15,9,11,-3,-9,84,46,31,0.00,40.00,11,8,17,0.00
2014-2-7,26,18,6,13,10,1,85,70,52,0.00,40.00,13,5,21,0.01
2014-2-8,27,24,20,22,14,11,95,68,50,0.00,40.00,17,7,24,0.01
2014-2-9,36,26,22,25,22,20,93,84,63,0.00,40.00,17,4,24,0.08
2014-2-10,31,26,17,25,22,16,97,88,73,0.00,40.00,4,2,7,0.08
2014-2-11,42,30,16,34,27,15,100,89,67,0.00,40.00,7,3,12,0.07
2014-2-12,60,48,31,41,36,29,100,68,40,0.00,40.00,23,11,41,0.10
2014-2-13,58,48,31,42,32,27,94,57,31,0.00,40.00,26,13,37,0.00
2014-2-14,58,45,36,42,36,32,100,74,43,0.00,40.00,24,8,36,0.12
2014-2-15,40,37,30,38,34,-100,100,93,78,0.00,40.00,10,6,14,0.16
2014-2-16,53,45,37,35,29,22,88,57,31,0.00,40.00,26,11,38,0.02
2014-2-17,56,48,28,39,33,25,94,58,35,0.00,40.00,26,12,48,0.00
2014-2-18,56,42,27,41,32,23,97,71,46,0.00,40.00,24,9,37,0.00
2014-2-19,52,41,28,29,24,18,91,53,28,0.00,40.00,22,11,32,0.00
2014-2-20,56,41,26,35,29,24,94,66,33,0.00,40.00,16,7,25,0.00
2014-2-21,51,41,30,29,24,22,80,53,33,0.00,40.00,17,6,27,0.00
2014-2-22,45,35,24,28,22,-100,83,62,32,0.00,40.00,7,3,13,0.00
2014-2-23,40,36,32,33,30,28,87,79,65,0.00,40.00,7,4,12,0.00
2014-2-24,37,34,32,32,29,26,95,81,67,0.00,40.00,12,5,17,0.02
2014-2-25,39,35,31,29,24,19,89,66,45,0.00,40.00,9,5,15,0.01
2014-2-26,45,37,29,30,22,17,84,57,35,0.00,40.00,7,4,16,0.01
2014-2-27,43,38,33,35,30,25,91,76,49,0.00,40.00,7,3,9,0.00
2014-2-28,53,39,26,36,30,20,100,75,42,0.00,40.00,13,5,18,0.00
2014-3-1,37,28,24,20,7,-100,57,41,32,0.00,40.00,11,9,19,0.00
2014-3-2,27,25,24,23,16,11,90,71,53,0.00,40.00,7,4,11,0.03
2014-3-3,37,28,17,29,23,15,96,85,69,0.00,40.00,8,4,11,0.06
2014-3-4,64,41,23,39,33,22,97,76,39,0.00,40.00,10,4,17,0.01
2014-3-5,67,52,43,52,46,38,100,82,48,0.00,40.00,18,6,28,0.27
2014-3-6,60,55,38,48,38,34,88,54,42,0.00,40.00,29,15,49,0.03
2014-3-7,62,50,35,38,35,31,90,60,31,0.00,40.00,16,7,25,0.00
2014-3-8,49,41,31,43,36,-100,99,84,66,0.00,40.00,5,2,8,0.00
2014-3-9,67,60,52,49,43,37,72,54,38,0.00,40.00,15,10,25,0.00
2014-3-10,61,53,46,40,34,27,72,50,29,0.00,40.00,26,14,36,0.00
2014-3-11,61,50,33,31,27,22,76,44,22,0.00,40.00,15,7,25,0.00
2014-3-12,62,43,24,32,28,22,91,61,29,0.00,40.00,7,3,12,0.00
2014-3-13,65,49,33,36,31,28,84,54,26,0.00,40.00,10,5,13,0.00
2014-3-14,64,52,43,45,36,24,91,58,22,0.00,40.00,23,9,38,0.01
2014-3-15,67,51,38,39,31,-100,79,51,26,0.00,40.00,16,5,25,0.01
2014-3-16,68,59,48,43,38,-100,63,48,36,0.00,40.00,24,13,33,0.00
2014-3-17,55,50,43,31,24,18,54,37,23,0.00,40.00,32,26,47,0.00
2014-3-18,59,45,29,26,23,20,74,44,23,0.00,40.00,10,5,13,0.00
2014-3-19,62,44,28,36,28,22,88,56,29,0.00,40.00,16,6,34,0.00
2014-3-20,56,44,35,27,20,14,68,41,20,0.00,40.00,23,13,32,0.00
2014-3-21,54,41,29,22,18,-100,70,45,21,0.00,40.00,9,5,15,0.00
2014-3-22,59,41,21,23,17,-100,81,43,17,0.00,40.00,9,5,17,0.00
2014-3-23,61,49,36,31,26,19,70,44,25,0.00,40.00,12,6,18,0.00
2014-3-24,65,57,45,30,27,24,49,33,23,0.00,40.00,10,6,16,0.00
2014-3-25,63,52,43,36,30,27,56,44,30,0.00,40.00,19,9,37,0.00
2014-3-26,60,50,34,36,34,31,91,57,37,0.00,40.00,12,6,20,0.00
2014-3-27,62,51,37,37,34,28,92,56,30,0.00,40.00,14,6,27,0.00
2014-3-28,52,45,32,50,42,29,100,90,65,0.00,40.00,10,6,14,0.07
2014-3-29,62,50,39,43,34,-100,93,58,33,0.00,40.00,19,9,31,0.04
2014-3-30,61,48,36,37,31,24,87,55,26,0.00,40.00,15,8,24,0.00
2014-3-31,62,47,26,35,31,25,94,57,29,0.00,40.00,8,4,15,0.00
2014-4-1,64,53,42,35,29,-100,69,42,22,0.00,40.00,12,8,18,0.00
2014-4-2,68,55,43,33,27,16,61,38,17,0.00,40.00,16,11,23,0.00
2014-4-3,64,52,31,33,30,21,81,47,19,0.00,40.00,20,8,29,0.00
2014-4-4,61,53,45,36,32,27,64,46,27,0.00,40.00,18,8,30,0.00
2014-4-5,64,52,36,41,34,-100,84,54,31,0.00,40.00,14,7,23,0.00
2014-4-6,70,58,45,40,37,34,75,49,30,0.00,40.00,18,10,29,0.00
2014-4-7,77,61,38,41,39,36,92,50,24,0.00,40.00,15,6,20,0.00
2014-4-8,81,65,42,46,40,31,84,45,16,0.00,40.00,19,9,31,0.00
2014-4-9,68,58,50,41,23,8,58,29,10,0.00,40.00,21,13,31,0.00
2014-4-10,68,56,36,34,26,21,69,34,20,0.00,40.00,15,7,24,0.00
2014-4-11,73,59,47,33,28,21,48,31,16,0.00,40.00,23,14,33,0.00
2014-4-12,68,56,42,32,26,-100,63,35,19,0.00,40.00,14,10,30,0.00
2014-4-13,66,55,40,27,22,18,51,29,17,0.00,40.00,13,6,19,0.00
2014-4-14,68,49,25,33,22,16,79,41,15,0.00,40.00,12,4,24,0.00
2014-4-15,66,58,50,33,27,22,48,32,19,0.00,40.00,34,20,44,0.00
2014-4-16,66,57,49,42,36,32,68,48,31,0.00,40.00,14,6,27,0.00
2014-4-17,59,54,48,51,47,38,98,78,56,0.00,40.00,18,6,30,0.04
2014-4-18,64,51,38,38,30,22,76,49,20,0.00,40.00,18,11,30,0.03
2014-4-19,66,50,30,36,30,-100,93,53,25,0.00,40.00,25,10,36,0.00
2014-4-20,67,54,37,35,30,24,83,45,21,0.00,40.00,12,7,17,0.00
2014-4-21,70,56,40,49,35,30,85,49,24,0.00,40.00,15,6,21,0.04
2014-4-22,61,52,43,49,38,27,100,65,28,0.00,40.00,17,11,27,0.31
2014-4-23,59,50,41,48,39,34,94,67,43,0.00,40.00,15,7,23,0.02
2014-4-24,69,57,49,48,40,33,94,58,27,0.00,40.00,23,12,31,0.02
2014-4-25,62,52,44,42,36,29,87,57,31,0.00,40.00,13,6,21,0.00
2014-4-26,63,51,41,40,33,25,84,55,23,0.00,40.00,14,9,23,0.00
2014-4-28,67,60,40,30,23,19,67,27,16,0.00,40.00,6,4,12,0.00
2014-4-29,74,55,33,34,28,19,86,44,13,0.00,40.00,9,5,17,0.00
2014-4-30,82,62,44,38,33,28,65,39,14,0.00,40.00,7,5,17,0.00
2014-5-1,86,65,45,43,36,30,76,41,14,0.00,40.00,8,4,14,0.00
2014-5-2,87,72,50,45,38,27,73,35,12,0.00,40.00,16,8,22,0.00
2014-5-3,72,62,51,48,37,-100,73,42,23,0.00,40.00,18,12,32,0.00
2014-5-4,69,60,50,41,37,29,70,44,26,0.00,40.00,23,13,41,0.00
2014-5-5,70,58,42,41,36,31,83,48,25,0.00,40.00,19,10,28,0.00
2014-5-6,72,61,47,39,35,31,68,42,23,0.00,40.00,18,10,30,0.00
2014-5-13,80,73,56,41,31,25,55,26,13,0.00,40.00,6,4,14,0.00
2014-5-14,88,68,43,42,37,32,82,40,14,0.00,40.00,10,4,14,0.00
2014-5-15,90,70,50,53,43,36,80,45,16,0.00,40.00,7,4,12,0.00
2014-5-16,87,72,59,51,42,27,69,38,12,0.00,40.00,19,10,32,0.00
2014-5-17,77,66,55,43,38,-100,58,38,20,0.00,40.00,17,11,27,0.00
2014-5-18,76,62,47,49,41,36,78,49,24,0.00,40.00,16,9,27,0.01
2014-5-19,77,62,48,43,36,-100,74,44,22,0.00,40.00,17,8,22,0.01
2014-5-20,83,68,53,45,41,36,67,40,19,0.00,40.00,11,7,17,0.00
2014-5-21,85,71,55,44,40,28,64,36,13,0.00,40.00,12,8,20,0.00
2014-5-22,90,74,54,53,44,39,71,39,17,0.00,40.00,11,6,16,0.00
2014-5-23,80,71,60,52,48,44,66,45,33,0.00,40.00,19,10,28,0.00
2014-5-24,82,68,57,47,38,-100,60,38,17,0.00,40.00,15,10,24,0.00
2014-5-25,81,66,49,47,41,33,79,44,18,0.00,40.00,14,7,28,0.00
2014-5-26,75,63,44,47,42,36,89,49,26,0.00,40.00,22,9,28,0.00
2014-5-27,77,63,49,41,35,20,69,40,12,0.00,40.00,16,8,22,0.00
2014-5-28,70,60,49,41,36,30,61,42,23,0.00,40.00,23,13,31,0.11
2014-5-29,77,62,47,43,38,29,78,45,18,0.00,40.00,16,8,22,0.01
2014-5-30,81,65,47,45,39,29,74,42,15,0.00,40.00,10,7,16,0.00
2014-5-31,86,73,58,41,37,-100,52,29,16,0.00,40.00,17,8,25,0.00
2014-6-1,86,69,53,45,41,35,73,40,17,0.00,40.00,17,7,25,0.00
2014-6-2,90,83,74,47,43,38,37,25,17,0.00,40.00,11,7,20,0.00
2014-6-3,89,76,62,48,44,37,60,35,17,0.00,40.00,21,12,29,0.00
2014-6-4,89,74,58,44,38,26,55,31,12,0.00,40.00,24,11,33,0.00
2014-6-5,83,70,57,42,32,23,51,28,12,0.00,40.00,23,9,32,0.00
2014-6-6,83,72,60,41,31,22,45,25,11,0.00,40.00,13,8,17,0.00
2014-6-7,87,73,60,45,38,-100,45,30,18,0.00,40.00,12,8,20,0.00
2014-6-8,89,75,60,47,44,40,58,35,18,0.00,40.00,18,9,24,0.00
2014-6-9,86,73,64,48,41,31,57,34,14,0.00,40.00,20,15,31,0.00
2014-6-10,82,71,59,42,38,31,52,33,18,0.00,40.00,21,13,30,0.00
2014-6-11,83,68,50,44,39,33,73,39,17,0.00,40.00,10,6,21,0.00
2014-6-12,88,71,56,45,41,30,62,37,13,0.00,40.00,22,10,33,0.00
2014-6-13,66,60,55,54,45,39,81,58,40,0.00,40.00,21,12,28,0.03
2014-6-14,79,65,55,44,40,-100,61,43,28,0.00,40.00,23,15,35,0.01
2014-6-15,74,64,55,44,40,34,63,43,23,0.00,40.00,21,11,32,0.00
2014-6-16,70,59,52,50,38,34,89,47,30,0.00,40.00,21,10,34,0.16
2014-6-17,70,60,51,57,50,42,99,71,36,0.00,40.00,9,4,15,0.19
2014-6-18,83,67,50,53,48,36,95,56,26,0.00,40.00,15,6,20,0.02
2014-6-19,90,73,54,49,40,34,69,35,16,0.00,40.00,19,7,24,0.00
2014-6-20,81,70,60,51,41,31,64,38,16,0.00,40.00,22,14,32,0.00
2014-6-21,80,65,44,45,35,-100,80,39,16,0.00,40.00,16,5,27,0.00
2014-6-22,88,71,47,49,38,30,71,36,14,0.00,40.00,7,4,14,0.00
2014-6-23,94,75,52,49,41,31,74,37,11,0.00,40.00,16,6,25,0.00
2014-6-24,86,75,63,52,46,39,68,37,19,0.00,40.00,23,13,35,0.00
2014-6-25,86,75,61,50,46,42,64,38,22,0.00,40.00,12,8,16,0.00
2014-6-26,82,72,64,63,54,47,76,54,30,0.00,40.00,13,6,25,0.03
2014-6-27,83,69,60,53,50,46,75,53,27,0.00,40.00,20,12,36,0.02
2014-6-28,84,69,58,49,44,-100,69,45,24,0.00,40.00,14,10,25,0.02
2014-6-29,82,70,57,49,43,37,68,40,20,0.00,40.00,22,14,31,0.00
2014-6-30,87,71,55,52,43,38,65,41,18,0.00,40.00,12,6,17,0.00
2014-7-1,98,78,58,53,46,39,65,36,13,0.00,40.00,10,6,21,0.00
2014-7-2,95,82,68,56,49,43,54,33,17,0.00,40.00,14,6,24,0.00
2014-7-3,91,79,67,52,42,34,54,30,14,0.00,40.00,23,14,33,0.00
2014-7-4,91,74,60,50,42,37,55,33,16,0.00,40.00,21,9,32,0.00
2014-7-5,95,80,67,52,37,-100,44,24,14,0.00,40.00,17,9,23,0.00
2014-7-6,99,82,69,55,52,43,55,37,16,0.00,40.00,14,10,26,0.00
2014-7-7,96,84,73,56,53,48,54,35,20,0.00,40.00,12,7,22,0.00
2014-7-8,103,89,73,57,52,45,50,31,17,0.00,40.00,12,8,16,0.00
2014-7-9,103,86,70,48,42,33,42,24,9,0.00,40.00,22,10,30,0.00
2014-7-10,99,85,61,48,38,30,63,21,9,0.00,40.00,20,8,30,0.00
2014-7-11,100,86,69,59,43,35,63,26,11,0.00,40.00,13,7,17,0.00
2014-7-12,104,83,64,57,46,36,65,32,10,0.00,40.00,9,5,14,0.00
2014-7-13,103,87,67,60,50,37,68,32,12,0.00,40.00,13,6,23,0.00
2014-7-14,103,90,71,59,52,45,63,30,15,0.00,40.00,12,8,25,0.00
2014-7-15,105,88,71,64,54,43,63,36,13,0.00,40.00,9,5,14,0.00
2014-7-16,110,93,70,55,45,31,55,24,7,0.00,40.00,13,7,17,0.00
2014-7-17,99,85,72,52,48,40,47,29,13,0.00,40.00,25,14,38,0.00
2014-7-18,96,80,60,52,47,42,69,34,19,0.00,40.00,22,10,38,0.00
2014-7-19,95,83,71,59,54,50,67,39,24,0.00,40.00,22,14,33,0.00
2014-7-20,87,72,64,59,51,43,69,50,22,0.00,40.00,19,12,28,0.00
2014-7-21,84,72,61,50,44,39,52,38,21,0.00,40.00,17,9,28,0.00
2014-7-22,85,75,68,62,53,48,78,48,33,0.00,40.00,9,4,15,0.01
2014-7-23,83,70,59,62,55,45,87,61,38,0.00,40.00,25,9,42,0.01
2014-7-24,81,65,46,47,45,42,92,52,28,0.00,40.00,16,9,27,0.00
2014-7-25,86,70,53,50,46,42,77,46,23,0.00,40.00,16,7,23,0.00
2014-7-26,94,75,54,50,45,39,79,39,15,0.00,40.00,9,5,23,0.00
2014-7-27,96,82,61,54,47,36,70,34,13,0.00,40.00,10,6,23,0.00
2014-7-28,105,88,67,60,48,37,53,29,10,0.00,40.00,11,7,15,0.00
2014-7-29,107,89,64,55,49,41,69,29,11,0.00,40.00,11,7,17,0.00
2014-7-30,107,89,72,52,44,33,50,25,8,0.00,40.00,14,8,22,0.00
2014-7-31,104,84,69,55,43,31,51,30,9,0.00,40.00,14,7,20,0.00
2014-8-1,101,85,72,60,53,45,58,37,15,0.00,40.00,9,6,14,0.00
2014-8-2,95,84,69,63,53,47,57,36,24,0.00,40.00,13,7,21,0.00
2014-8-3,100,83,66,61,53,40,74,40,13,0.00,40.00,9,6,13,0.00
2014-8-4,103,89,75,55,49,41,47,27,12,0.00,40.00,11,7,16,0.00
2014-8-5,104,87,73,54,42,33,38,24,9,0.00,40.00,13,7,18,0.00
2014-8-6,97,79,64,52,46,42,61,34,16,0.00,40.00,12,7,21,0.00
2014-8-7,98,86,72,50,46,39,46,26,14,0.00,40.00,17,7,29,0.00
2014-8-8,93,77,62,52,46,37,63,37,14,0.00,40.00,18,8,26,0.00
2014-8-9,94,77,56,55,45,38,75,37,15,0.00,40.00,18,6,26,0.00
2014-8-10,98,84,57,55,46,35,77,31,11,0.00,40.00,11,6,13,0.00
2014-8-11,102,86,65,53,45,40,56,26,12,0.00,40.00,12,6,17,0.00
2014-8-12,99,85,70,62,55,45,77,40,18,0.00,40.00,30,8,55,0.01
2014-8-13,88,73,59,64,60,55,100,69,34,0.00,40.00,17,6,27,0.54
2014-8-14,80,71,64,64,62,57,95,75,47,0.00,40.00,13,6,25,0.79
2014-8-15,81,71,65,66,64,58,100,80,52,0.00,40.00,10,5,17,0.21
2014-8-16,88,76,64,59,57,54,78,55,32,0.00,40.00,13,6,17,0.01
2014-8-17,92,80,66,66,58,54,76,52,29,0.00,40.00,10,6,14,0.00
2014-8-18,96,81,69,62,57,43,74,49,17,0.00,40.00,10,6,13,0.00
2014-8-19,95,82,73,60,55,51,61,42,23,0.00,40.00,17,8,28,0.00
2014-8-20,89,78,66,56,51,46,66,41,24,0.00,40.00,17,9,26,0.00
2014-8-21,85,72,54,52,48,34,88,46,24,0.00,40.00,19,6,29,0.00
2014-8-22,83,74,65,53,51,49,60,46,32,0.00,40.00,19,12,29,0.00
2014-8-23,84,71,61,56,50,45,74,49,26,0.00,40.00,10,6,21,0.00
2014-8-24,84,70,55,53,51,48,83,54,30,0.00,40.00,14,6,19,0.00
2014-8-25,87,74,63,55,49,44,71,44,23,0.00,40.00,8,5,17,0.00
2014-8-26,93,74,55,54,50,44,87,49,19,0.00,40.00,9,4,19,0.00
2014-8-27,99,80,57,55,52,47,82,43,20,0.00,40.00,19,6,27,0.00
2014-8-28,92,79,69,55,50,41,60,39,18,0.00,40.00,19,12,27,0.00
2014-8-29,88,73,60,55,50,46,79,47,25,0.00,40.00,22,10,30,0.00
2014-8-30,82,70,62,53,48,46,64,46,29,0.00,40.00,21,9,30,0.00
2014-8-31,77,68,60,50,43,39,60,42,27,0.00,40.00,20,14,30,0.00
2014-9-1,85,70,52,50,44,40,77,43,22,0.00,40.00,18,7,30,0.00
2014-9-2,86,70,58,51,46,40,76,46,22,0.00,40.00,21,11,30,0.00
2014-9-3,79,66,56,46,42,38,68,43,23,0.00,40.00,20,12,30,0.00
2014-9-4,79,65,50,48,45,42,83,53,27,0.00,40.00,8,5,17,0.00
2014-9-5,86,68,51,47,43,37,79,46,18,0.00,40.00,11,6,19,0.00
2014-9-6,88,69,49,47,42,37,75,43,19,0.00,40.00,7,5,12,0.00
2014-9-7,94,71,46,45,40,35,84,39,13,0.00,40.00,14,5,20,0.00
2014-9-8,88,75,51,50,43,34,69,34,17,0.00,40.00,19,12,27,0.00
2014-9-9,81,70,58,50,46,42,73,46,26,0.00,40.00,16,9,23,0.00
2014-9-10,73,67,57,44,32,22,52,29,16,0.00,40.00,15,11,27,0.00
2014-9-11,71,59,46,34,28,25,57,32,18,0.00,40.00,15,10,27,0.00
2014-9-12,77,60,43,35,28,25,57,33,16,0.00,40.00,10,6,17,0.00
2014-9-13,81,63,48,38,31,24,53,32,17,0.00,40.00,9,6,13,0.00
2014-9-14,84,65,41,41,37,32,83,43,16,0.00,40.00,6,4,11,0.00
2014-9-15,87,67,44,47,40,32,84,44,14,0.00,40.00,8,5,11,0.00
2014-9-16,87,70,54,55,43,37,75,42,20,0.00,40.00,6,4,10,0.00
2014-9-17,85,68,53,58,49,45,81,55,25,0.00,40.00,7,4,14,0.00
2014-9-18,82,72,64,54,51,48,69,48,34,0.00,40.00,23,10,32,0.00
2014-9-19,87,73,59,54,50,47,75,48,25,0.00,40.00,17,7,32,0.00
2014-9-20,88,72,59,58,51,49,81,52,27,0.00,40.00,9,5,15,0.00
2014-9-21,92,73,60,55,48,42,69,45,18,0.00,40.00,7,4,9,0.00
2014-9-22,87,70,53,54,51,48,83,56,28,0.00,40.00,6,4,10,0.00
2014-9-23,77,69,59,62,57,51,83,67,49,0.00,40.00,7,4,12,0.00
2014-9-24,72,65,59,60,56,48,99,73,44,0.00,40.00,15,6,23,0.10
2014-9-25,67,60,51,59,57,50,100,91,71,0.00,40.00,6,3,9,0.24
2014-9-26,75,59,44,55,50,44,100,77,42,0.00,40.00,8,4,14,0.01
2014-9-27,77,64,55,53,50,46,85,61,34,0.00,40.00,12,8,20,0.00
2014-9-28,80,68,54,53,48,44,83,52,29,0.00,40.00,13,7,21,0.00
2014-9-29,81,69,59,53,48,41,69,50,25,0.00,40.00,14,9,21,0.00
2014-9-30,72,62,54,47,40,36,61,45,27,0.00,40.00,26,18,35,0.00
2014-10-1,73,60,43,43,40,36,84,50,26,0.00,40.00,14,8,22,0.00
2014-10-2,70,58,45,44,38,32,81,51,24,0.00,40.00,14,6,26,0.00
2014-10-3,76,55,38,41,36,30,89,58,19,0.00,40.00,6,3,11,0.00
2014-10-4,76,57,41,55,42,37,87,62,29,0.00,40.00,6,3,9,0.00
2014-10-5,84,65,48,55,48,44,89,58,28,0.00,40.00,10,4,13,0.00
2014-10-6,93,69,47,58,50,45,95,58,24,0.00,40.00,10,4,14,0.00
2014-10-7,88,71,52,55,52,50,93,54,28,0.00,40.00,8,5,13,0.00
2014-10-8,78,66,52,53,48,42,75,54,29,0.00,40.00,13,5,20,0.00
2014-10-9,80,60,43,48,44,41,95,62,27,0.00,40.00,4,3,9,0.00
2014-10-10,79,64,41,52,47,40,97,58,30,0.00,40.00,12,5,20,0.00
2014-10-11,76,64,59,49,42,38,67,46,30,0.00,40.00,27,12,42,0.00
2014-10-12,72,62,52,43,39,33,64,45,25,0.00,40.00,19,9,32,0.00
2014-10-13,73,58,42,45,41,36,92,59,28,0.00,40.00,7,3,10,0.00
2014-10-14,67,59,54,53,47,41,94,66,39,0.00,40.00,17,5,25,0.02
2014-10-15,65,55,46,53,47,41,100,79,44,0.00,40.00,21,8,32,0.10
2014-10-16,67,53,38,46,43,37,99,73,42,0.00,40.00,7,4,14,0.01
2014-10-17,63,54,47,52,45,42,94,72,47,0.00,40.00,8,4,12,0.01
2014-10-18,72,57,47,55,51,47,100,82,51,0.00,40.00,7,3,9,0.02
2014-10-19,72,58,50,53,50,48,95,79,47,0.00,40.00,8,5,11,0.00
2014-10-20,66,53,42,54,49,42,100,88,64,0.00,40.00,12,4,24,0.15
2014-10-21,68,54,40,51,45,40,100,77,40,0.00,40.00,14,5,21,0.15
2014-10-22,60,54,43,55,50,42,100,87,68,0.00,40.00,9,4,15,0.06
2014-10-23,63,56,46,53,46,39,91,71,46,0.00,40.00,17,8,25,0.02
2014-10-24,57,48,40,49,43,39,98,83,58,0.00,40.00,9,5,12,0.09
2014-10-25,62,54,46,51,47,36,94,78,46,0.00,40.00,29,8,41,0.09
2014-10-26,62,54,46,41,38,34,73,56,41,0.00,40.00,29,12,41,0.00
2014-10-27,59,47,39,39,36,34,85,66,40,0.00,40.00,13,5,23,0.00
2014-10-28,53,47,40,47,43,39,100,87,68,0.00,40.00,5,2,9,0.12
2014-10-29,60,48,39,52,47,39,100,95,72,0.00,40.00,7,3,10,0.02
2014-10-30,58,54,50,52,50,49,98,88,79,0.00,40.00,10,7,14,0.01
2014-10-31,55,52,49,54,51,43,100,96,79,0.00,40.00,10,4,12,0.09
2014-11-1,60,51,45,45,40,34,95,68,50,0.00,40.00,22,9,29,0.01
2014-11-2,64,53,46,47,37,33,99,58,33,0.00,40.00,22,11,33,0.02
2014-11-3,59,52,44,50,47,44,100,86,64,0.00,40.00,7,3,17,0.02
2014-11-4,69,57,51,54,49,42,100,75,51,0.00,40.00,15,8,22,0.21
2014-11-5,62,54,47,51,47,42,98,77,60,0.00,40.00,10,4,14,0.03
2014-11-6,67,56,49,53,48,39,100,76,46,0.00,40.00,26,9,44,0.03
2014-11-7,61,50,35,39,36,34,97,62,37,0.00,40.00,16,7,24,0.00
2014-11-8,55,41,30,42,37,30,100,86,56,0.00,40.00,5,3,8,0.00
2014-11-9,62,46,35,44,39,35,100,79,47,0.00,40.00,27,8,41,0.00
2014-11-10,53,44,36,36,29,24,85,59,33,0.00,40.00,9,4,13,0.00
2014-11-11,42,34,27,24,9,-1,58,36,20,0.00,40.00,18,12,27,0.00
2014-11-12,36,26,20,9,4,-1,62,39,21,0.00,40.00,13,9,21,0.00
2014-11-13,34,27,17,20,9,6,75,47,30,0.00,40.00,9,4,15,0.00
2014-11-14,39,27,14,22,14,9,89,62,30,0.00,40.00,6,3,14,0.00
2014-11-15,38,20,8,20,11,4,91,71,33,0.00,40.00,5,3,9,0.00
2014-11-16,35,20,9,22,15,6,95,82,50,0.00,40.00,5,3,7,0.00
2014-11-17,20,18,13,19,16,11,97,94,91,0.00,40.00,3,2,5,0.00
2014-11-18,20,18,16,19,17,14,95,94,92,0.00,40.00,2,1,4,0.00
2014-11-19,26,22,19,26,22,18,100,97,95,0.00,40.00,3,1,5,0.00
2014-11-20,30,28,22,30,28,21,100,100,97,0.00,40.00,4,2,6,0.01
2014-11-21,32,29,23,32,29,23,100,100,99,0.00,40.00,8,2,10,0.14
2014-11-22,43,35,27,40,33,27,100,91,68,0.00,40.00,13,5,24,0.05